SV1LH-1 Melissia GR current weather conditions

sailwx.info

Wind from 112 at 1 knots gusting 2

Air temperature 27.2° C
Dewpoint 12.8° C

Last reported at 2014-Sep-20 06:56 UTC.
Time now 2014-Sep-20 08:02 UTC

Location: N 38°03' E 023°51'.
View on Google Maps.

See reports from other nearby stations

  
Tides and Currents Weather Stations Pressure Air Temp Water Temp Dewpoint Dewpoint Depression Visibility Wind Speed Wind Dir Waves Ship Positions
date/time (UTC)wind fromknots sea level pressurealtimeterstation pressurevisibilityair tempwater tempwave heightnotes
2014-Sep-20 06:56 112 1 gusting 2 27.2
2014-Sep-20 06:51 135 27.8
2014-Sep-20 06:46 225 27.2
2014-Sep-20 06:41 247 0 gusting 0 26.7
2014-Sep-20 06:36 247 0 gusting 1 27.2
2014-Sep-20 06:31 225 26.7
2014-Sep-20 06:26 225 26.7
2014-Sep-20 06:21 180 25.6
2014-Sep-20 06:16 180 25.0
2014-Sep-20 06:11 180 23.9
2014-Sep-20 06:06 180 0 gusting 0 23.3
2014-Sep-20 06:01 180 22.8
2014-Sep-20 05:56 135 22.2
2014-Sep-20 05:51 21.7
2014-Sep-20 05:46 112 0 gusting 0 20.6
2014-Sep-20 05:41 157 20.0
2014-Sep-20 05:36 112 1 gusting 2 19.4
2014-Sep-20 05:31 022 0 gusting 1 18.9
2014-Sep-20 05:26 090 0 gusting 0 18.3
2014-Sep-20 05:21 090 1 gusting 2 17.8
2014-Sep-20 05:16 112 17.8
2014-Sep-20 05:11 022 16.7
2014-Sep-20 05:06 112 0 gusting 1 16.1
2014-Sep-20 05:01 067 1 gusting 1 15.6
2014-Sep-20 04:56 090 0 gusting 1 15.6
2014-Sep-20 04:51 112 15.0
2014-Sep-20 04:46 067 15.0
2014-Sep-20 04:41 067 0 gusting 1 14.4
2014-Sep-20 04:36 090 0 gusting 0 14.4
2014-Sep-20 04:31 090 14.4
2014-Sep-20 04:26 067 0 gusting 1 14.4
2014-Sep-20 04:21 090 0 gusting 1 13.9
2014-Sep-20 04:16 045 13.9
2014-Sep-20 04:11 090 0 gusting 1 13.9
2014-Sep-20 04:06 090 0 gusting 1 13.9
2014-Sep-20 04:01 090 0 gusting 1 13.9
2014-Sep-20 03:56 067 0 gusting 0 13.9
2014-Sep-20 03:51 090 13.9
2014-Sep-20 03:46 112 13.9
2014-Sep-20 03:41 045 0 gusting 0 14.4
2014-Sep-20 03:36 090 0 gusting 1 14.4
2014-Sep-20 03:31 090 0 gusting 1 14.4
2014-Sep-20 03:26 090 0 gusting 0 13.9
2014-Sep-20 03:21 090 0 gusting 1 13.9
2014-Sep-20 03:16 090 0 gusting 0 13.9
2014-Sep-20 03:11 090 0 gusting 1 13.9
2014-Sep-20 03:06 045 0 gusting 0 14.4
2014-Sep-20 03:01 090 1 gusting 1 13.9
2014-Sep-20 02:56 090 1 gusting 1 13.9
2014-Sep-20 02:51 045 13.9
2014-Sep-20 02:46 045 13.9
2014-Sep-20 02:41 045 13.9
2014-Sep-20 02:36 045 0 gusting 1 13.9
2014-Sep-20 02:31 090 13.9
2014-Sep-20 02:26 067 0 gusting 0 14.4
2014-Sep-20 02:21 112 14.4
2014-Sep-20 02:16 14.4
2014-Sep-20 02:11 14.4
2014-Sep-20 02:06 067 14.4
2014-Sep-20 02:01 022 0 gusting 1 13.9
2014-Sep-20 01:56 13.9
2014-Sep-20 01:51 022 0 gusting 0 14.4
2014-Sep-20 01:46 090 0 gusting 0 14.4
2014-Sep-20 01:41 135 14.4
2014-Sep-20 01:36 022 14.4
2014-Sep-20 01:31 090 14.4
2014-Sep-20 01:26 045 14.4
2014-Sep-20 01:21 045 0 gusting 1 14.4
2014-Sep-20 01:16 045 14.4
2014-Sep-20 01:11 090 14.4
2014-Sep-20 01:06 112 14.4
2014-Sep-20 01:01 15.0
2014-Sep-20 00:56 090 15.0
2014-Sep-20 00:51 135 15.0
2014-Sep-20 00:46 15.0
2014-Sep-20 00:41 067 1 gusting 1 15.0
2014-Sep-20 00:36 067 0 gusting 1 15.0
2014-Sep-20 00:31 045 0 gusting 1 15.0
2014-Sep-20 00:26 067 0 gusting 0 15.0
2014-Sep-20 00:21 067 15.0
2014-Sep-20 00:16 15.0
2014-Sep-20 00:11 112 0 gusting 0 15.6
2014-Sep-20 00:06 157 15.6
2014-Sep-20 00:01 337 15.6
2014-Sep-19 23:56 337 15.0
2014-Sep-19 23:51 022 0 gusting 1 15.0
2014-Sep-19 23:46 090 0 gusting 0 15.0
2014-Sep-19 23:41 045 0 gusting 1 15.6
2014-Sep-19 23:36 090 15.6
2014-Sep-19 23:31 135 0 gusting 1 15.0
2014-Sep-19 23:26 15.6
2014-Sep-19 23:21 067 0 gusting 1 15.0
2014-Sep-19 23:16 067 15.6
2014-Sep-19 23:11 045 0 gusting 0 15.6
2014-Sep-19 23:06 090 0 gusting 2 15.0
2014-Sep-19 23:01 067 15.0
2014-Sep-19 22:56 045 1 gusting 1 15.0
2014-Sep-19 22:51 090 0 gusting 1 15.0
2014-Sep-19 22:46 15.0
2014-Sep-19 22:41 15.0
2014-Sep-19 22:36 022 15.0
2014-Sep-19 22:31 15.6
2014-Sep-19 22:26 090 0 gusting 0 15.6
2014-Sep-19 22:21 090 15.6
2014-Sep-19 22:16 270 1 gusting 2 15.6
2014-Sep-19 22:11 045 1 gusting 2 15.6
2014-Sep-19 22:06 202 15.0
2014-Sep-19 22:01 247 2 gusting 3 15.0
2014-Sep-19 21:56 067 15.6
2014-Sep-19 21:51 022 0 gusting 1 15.6
2014-Sep-19 21:46 247 15.6
2014-Sep-19 21:41 157 0 gusting 1 15.6
2014-Sep-19 21:36 247 0 gusting 1 15.6
2014-Sep-19 21:31 045 15.6
2014-Sep-19 21:26 045 0 gusting 0 15.0
2014-Sep-19 21:21 112 1 gusting 1 15.0
2014-Sep-19 21:16 090 15.0
2014-Sep-19 21:11 067 1 gusting 2 15.0
2014-Sep-19 21:06 090 15.0
2014-Sep-19 21:01 112 15.0
2014-Sep-19 20:56 067 15.0
2014-Sep-19 20:51 045 15.0
2014-Sep-19 20:46 135 15.6
2014-Sep-19 20:41 090 15.6
2014-Sep-19 20:36 067 0 gusting 0 15.6
2014-Sep-19 20:31 112 15.6
2014-Sep-19 20:26 135 0 gusting 0 15.6
2014-Sep-19 20:21 067 15.6
2014-Sep-19 20:16 090 1 gusting 2 15.6
2014-Sep-19 20:11 112 1 gusting 1 15.6
2014-Sep-19 20:06 157 15.6
2014-Sep-19 20:01 067 15.6
2014-Sep-19 19:56 090 0 gusting 1 15.6
2014-Sep-19 19:51 15.6
2014-Sep-19 19:46 090 1 gusting 1 15.0
2014-Sep-19 19:41 112 15.6
2014-Sep-19 19:36 135 15.6
2014-Sep-19 19:31 112 15.6
2014-Sep-19 19:26 090 1 gusting 1 15.6
2014-Sep-19 19:21 090 0 gusting 1 15.6
2014-Sep-19 19:16 15.6
2014-Sep-19 19:11 112 15.6
2014-Sep-19 19:06 067 15.6
2014-Sep-19 19:01 090 0 gusting 0 15.6
2014-Sep-19 18:56 270 15.6
2014-Sep-19 18:51 045 15.6
2014-Sep-19 18:46 090 0 gusting 0 16.1
2014-Sep-19 18:41 16.1
2014-Sep-19 18:36 045 16.1
2014-Sep-19 18:31 090 16.1
2014-Sep-19 18:26 045 0 gusting 1 16.7
2014-Sep-19 18:21 247 16.7
2014-Sep-19 18:16 045 16.7
2014-Sep-19 18:11 225 16.7
2014-Sep-19 18:06 337 16.7
2014-Sep-19 18:01 022 16.7
2014-Sep-19 17:56 202 16.7
2014-Sep-19 17:51 202 16.7
2014-Sep-19 17:46 045 17.2
2014-Sep-19 17:41 157 17.2
2014-Sep-19 17:36 090 17.2
2014-Sep-19 17:31 090 17.2
2014-Sep-19 17:26 247 1 gusting 1 17.8
2014-Sep-19 17:21 135 17.8
2014-Sep-19 17:16 090 17.8
2014-Sep-19 17:11 18.3
2014-Sep-19 17:06 157 18.3
2014-Sep-19 17:01 292 0 gusting 1 18.3
2014-Sep-19 16:56 135 0 gusting 1 18.9
2014-Sep-19 16:51 157 1 gusting 2 18.9
2014-Sep-19 16:46 247 18.9
2014-Sep-19 16:41 202 19.4
2014-Sep-19 16:36 247 19.4
2014-Sep-19 16:31 20.0
2014-Sep-19 16:26 045 1 gusting 2 20.0
2014-Sep-19 16:21 045 2 gusting 3 20.6
2014-Sep-19 16:16 022 1 gusting 2 20.6
2014-Sep-19 16:11 135 1 gusting 2 21.1
2014-Sep-19 16:06 315 2 gusting 2 21.1
2014-Sep-19 16:00 045 1 gusting 3 21.7
2014-Sep-19 15:55 112 2 gusting 3 21.7
2014-Sep-19 15:50 067 2 gusting 3 22.2
2014-Sep-19 15:45 067 3 gusting 5 22.2
2014-Sep-19 15:40 045 2 gusting 4 22.2
2014-Sep-19 15:35 22.2
2014-Sep-19 15:30 090 4 gusting 6 22.2
2014-Sep-19 15:25 067 3 gusting 5 22.2
2014-Sep-19 15:00 090 4 gusting 6 23.3
2014-Sep-19 14:56 090 5 gusting 9 23.3
2014-Sep-19 14:51 090 3 gusting 6 23.9
2014-Sep-19 14:46 24.4
2014-Sep-19 14:41 045 4 gusting 6 24.4
2014-Sep-19 14:36 045 3 gusting 5 24.4
2014-Sep-19 14:31 045 2 gusting 5 24.4
2014-Sep-19 14:26 045 5 gusting 6 24.4
2014-Sep-19 14:21 045 4 gusting 7 24.4
2014-Sep-19 14:16 022 6 gusting 9 25.0
2014-Sep-19 14:11 045 3 gusting 5 25.0
2014-Sep-19 14:06 202 2 gusting 5 25.0
2014-Sep-19 14:01 045 3 gusting 6 25.0
2014-Sep-19 13:56 045 4 gusting 7 25.0
2014-Sep-19 13:51 022 2 gusting 4 25.0
2014-Sep-19 13:46 24.4
2014-Sep-19 13:41 112 4 gusting 6 23.9
2014-Sep-19 13:36 090 4 gusting 6 23.3
2014-Sep-19 13:31 24.4
2014-Sep-19 13:26 067 3 gusting 5 24.4
2014-Sep-19 13:21 022 6 gusting 8 25.0
2014-Sep-19 13:16 022 4 gusting 7 25.6
2014-Sep-19 13:11 022 6 gusting 12 26.1
2014-Sep-19 13:06 090 3 gusting 6 26.1
2014-Sep-19 13:01 315 3 gusting 6 26.1
2014-Sep-19 12:56 337 5 gusting 8 26.1
2014-Sep-19 12:51 26.1
2014-Sep-19 12:46 045 4 gusting 6 26.1
2014-Sep-19 12:41 26.1
2014-Sep-19 12:36 337 6 gusting 8 26.1
2014-Sep-19 12:31 045 4 gusting 6 26.7
2014-Sep-19 12:26 067 6 gusting 8 26.1
2014-Sep-19 12:21 112 2 gusting 6 26.1
2014-Sep-19 12:16 26.7
2014-Sep-19 12:11 045 5 gusting 6 26.7
2014-Sep-19 12:06 315 3 gusting 7 26.7
2014-Sep-19 12:01 045 4 gusting 8 27.2
2014-Sep-19 11:56 022 1 gusting 3 27.2
2014-Sep-19 11:51 26.7
2014-Sep-19 11:46 045 3 gusting 5 26.7
2014-Sep-19 11:41 067 4 gusting 7 26.1
2014-Sep-19 11:36 022 7 gusting 10 26.1
2014-Sep-19 11:31 045 3 gusting 5 25.6
2014-Sep-19 11:26 180 3 gusting 5 25.6
2014-Sep-19 11:21 26.1
2014-Sep-19 11:16 045 3 gusting 5 26.1
2014-Sep-19 11:11 022 26.1
2014-Sep-19 11:06 045 4 gusting 7 26.1
2014-Sep-19 11:01 045 2 gusting 6 26.1
2014-Sep-19 10:56 090 2 gusting 4 25.6
2014-Sep-19 10:51 25.0
2014-Sep-19 10:46 25.0
2014-Sep-19 10:41 067 6 gusting 7 25.6
2014-Sep-19 10:36 337 1 gusting 4 25.6
2014-Sep-19 10:31 26.7
2014-Sep-19 10:26 067 3 gusting 7 26.1
2014-Sep-19 10:21 045 4 gusting 5 26.1
2014-Sep-19 10:16 26.7
2014-Sep-19 10:11 045 4 gusting 8 26.1
2014-Sep-19 10:06 022 5 gusting 7 25.6
2014-Sep-19 10:01 022 7 gusting 12 25.6
2014-Sep-19 09:56 022 2 gusting 4 25.6
2014-Sep-19 09:51 045 3 gusting 5 25.6
2014-Sep-19 09:46 022 5 gusting 8 25.0
2014-Sep-19 09:41 25.6
2014-Sep-19 09:36 045 6 gusting 9 26.1
2014-Sep-19 09:31 022 3 gusting 6 25.6
2014-Sep-19 09:26 25.0
2014-Sep-19 09:21 022 1 gusting 3 24.4
2014-Sep-19 09:16 22.8
2014-Sep-19 09:11 22.2
2014-Sep-19 09:06 022 1 gusting 5 21.7
2014-Sep-19 09:01 067 2 gusting 3 21.7
2014-Sep-19 08:56 022 3 gusting 6 21.7
2014-Sep-19 08:51 022 6 gusting 8 21.7
2014-Sep-19 08:46 045 4 gusting 6 21.1
2014-Sep-19 08:41 045 5 gusting 8 21.1
2014-Sep-19 08:36 21.7
2014-Sep-19 08:31 022 5 gusting 9 21.7
2014-Sep-19 08:26 22.2
2014-Sep-19 08:21 22.2
2014-Sep-19 08:16 315 1 gusting 2 22.8
2014-Sep-19 08:11 045 6 gusting 9 22.2
2014-Sep-19 08:06 247 0 gusting 3 21.7
2014-Sep-19 08:01 337 2 gusting 3 21.1
2014-Sep-19 07:56 045 1 gusting 3 20.6
2014-Sep-19 07:51 045 0 gusting 1 20.6
2014-Sep-19 07:46 022 2 gusting 4 20.6
2014-Sep-19 07:41 022 21.1
2014-Sep-19 07:36 045 0 gusting 2 21.7
2014-Sep-19 07:31 180 0 gusting 0 21.7
2014-Sep-19 07:26 337 3 gusting 6 20.6
2014-Sep-19 07:21 20.6
2014-Sep-19 07:16 022 5 gusting 8 20.6
2014-Sep-19 07:11 045 6 gusting 10 21.1
2014-Sep-19 07:06 21.1
2014-Sep-19 07:01 045 2 gusting 4 19.4
2014-Sep-19 06:56 022 1 gusting 3 19.4
2014-Sep-19 06:51 19.4
2014-Sep-19 06:46 022 6 gusting 10 19.4
2014-Sep-19 06:41 315 6 gusting 13 20.6
2014-Sep-19 06:36 022 4 gusting 5 21.1
2014-Sep-19 06:31 21.1
2014-Sep-19 06:26 21.7
2014-Sep-19 06:21 337 5 gusting 6 21.7
2014-Sep-19 06:16 315 5 gusting 7 21.7
2014-Sep-19 06:11 337 5 gusting 6 21.1
2014-Sep-19 06:06 022 5 gusting 7 21.1
2014-Sep-19 06:01 022 4 gusting 6 21.1
2014-Sep-19 05:56 20.6
2014-Sep-19 05:51 20.6
2014-Sep-19 05:46 20.0
2014-Sep-19 05:41 045 6 gusting 8 20.0
2014-Sep-19 05:36 022 4 gusting 6 20.0
2014-Sep-19 05:31 292 3 gusting 6 20.0
2014-Sep-19 05:26 022 4 gusting 6 20.0
2014-Sep-19 05:21 022 6 gusting 7 20.0
2014-Sep-19 05:16 045 2 gusting 6 19.4
2014-Sep-19 05:11 315 2 gusting 4 18.9
2014-Sep-19 05:06 18.9
2014-Sep-19 05:01 18.3
2014-Sep-19 04:56 18.3
2014-Sep-19 04:51 337 2 gusting 4 17.8
2014-Sep-19 04:46 067 0 gusting 2 17.8
2014-Sep-19 04:41 022 6 gusting 7 17.2
2014-Sep-19 04:36 067 4 gusting 6 17.2
2014-Sep-19 04:31 022 6 gusting 9 17.2
2014-Sep-19 04:26 067 6 gusting 8 17.2
2014-Sep-19 04:21 17.2
2014-Sep-19 04:16 022 2 gusting 5 17.2
2014-Sep-19 04:11 022 6 gusting 9 16.7
2014-Sep-19 04:06 090 4 gusting 7 16.7
2014-Sep-19 04:01 045 7 gusting 10 16.7
2014-Sep-19 03:56 045 4 gusting 6 16.7
2014-Sep-19 03:51 022 4 gusting 6 16.7
2014-Sep-19 03:46 022 5 gusting 7 16.7
2014-Sep-19 03:41 022 3 gusting 5 16.7
2014-Sep-19 03:36 315 3 gusting 5 16.7
2014-Sep-19 03:31 337 3 gusting 5 16.7
2014-Sep-19 03:26 315 3 gusting 5 16.7
2014-Sep-19 03:21 045 6 gusting 6 16.7
2014-Sep-19 03:16 337 3 gusting 5 16.7
2014-Sep-19 03:11 022 3 gusting 6 16.7
2014-Sep-19 03:06 022 1 gusting 4 16.7
2014-Sep-19 03:01 045 5 gusting 7 16.7
2014-Sep-19 02:56 112 0 gusting 3 16.1
2014-Sep-19 02:51 16.1
2014-Sep-19 02:46 337 2 gusting 3 16.1
2014-Sep-19 02:41 247 16.1
2014-Sep-19 02:36 180 0 gusting 2 16.1
2014-Sep-19 02:31 225 2 gusting 5 15.6
2014-Sep-19 02:26 022 1 gusting 1 15.6
2014-Sep-19 02:21 15.0
2014-Sep-19 02:16 337 15.0
2014-Sep-19 02:11 315 15.0
2014-Sep-19 02:06 022 0 gusting 2 15.0
2014-Sep-19 02:01 067 0 gusting 0 15.0
2014-Sep-19 01:56 090 15.0
2014-Sep-19 01:51 247 0 gusting 0 15.0
2014-Sep-19 01:46 112 15.6
2014-Sep-19 01:41 180 15.6
2014-Sep-19 01:36 067 16.1
2014-Sep-19 01:31 202 0 gusting 1 16.1
2014-Sep-19 01:26 112 16.1
2014-Sep-19 01:21 090 16.1
2014-Sep-19 01:16 045 1 gusting 2 16.1
2014-Sep-19 01:11 112 16.1
2014-Sep-19 01:06 337 1 gusting 3 16.7
2014-Sep-19 01:01 045 1 gusting 3 16.7
2014-Sep-19 00:56 337 2 gusting 4 16.7
2014-Sep-19 00:51 022 4 gusting 6 16.7
2014-Sep-19 00:46 16.7
2014-Sep-19 00:41 045 4 gusting 5 16.7
2014-Sep-19 00:36 16.7
2014-Sep-19 00:31 022 5 gusting 7 16.7
2014-Sep-19 00:26 315 4 gusting 6 16.7
2014-Sep-19 00:21 022 3 gusting 5 16.7
2014-Sep-19 00:16 045 4 gusting 5 16.7
2014-Sep-19 00:11 022 3 gusting 4 16.7
2014-Sep-19 00:06 17.2
2014-Sep-19 00:01 067 4 gusting 6 17.2
2014-Sep-18 23:56 045 6 gusting 8 17.2
2014-Sep-18 23:51 17.2
2014-Sep-18 23:46 022 6 gusting 10 17.2
2014-Sep-18 23:41 022 6 gusting 9 17.2
2014-Sep-18 23:36 022 6 gusting 9 17.2
2014-Sep-18 23:31 067 5 gusting 7 17.2
2014-Sep-18 23:26 045 6 gusting 8 17.2
2014-Sep-18 23:21 17.2
2014-Sep-18 23:16 045 5 gusting 6 17.2
2014-Sep-18 23:11 045 3 gusting 6 17.2
2014-Sep-18 23:06 17.2
2014-Sep-18 23:01 045 5 gusting 6 17.2
2014-Sep-18 22:56 022 6 gusting 10 17.2
2014-Sep-18 22:51 337 5 gusting 6 17.2
2014-Sep-18 22:46 337 3 gusting 6 17.2
2014-Sep-18 22:41 045 4 gusting 6 17.2
2014-Sep-18 22:36 17.2
2014-Sep-18 22:31 17.2
2014-Sep-18 22:26 022 3 gusting 6 17.2
2014-Sep-18 22:21 045 3 gusting 4 17.2
2014-Sep-18 22:16 022 4 gusting 6 17.2
2014-Sep-18 22:11 022 3 gusting 5 17.2
2014-Sep-18 22:06 022 1 gusting 3 17.2
2014-Sep-18 22:01 045 3 gusting 4 17.2
2014-Sep-18 21:56 045 1 gusting 2 17.2
2014-Sep-18 21:51 17.2
2014-Sep-18 21:46 022 0 gusting 2 17.2
2014-Sep-18 21:41 090 2 gusting 3 17.8
2014-Sep-18 21:36 022 1 gusting 2 17.8
2014-Sep-18 21:31 045 3 gusting 6 17.8
2014-Sep-18 21:26 045 6 gusting 7 17.8
2014-Sep-18 21:21 17.8
2014-Sep-18 21:16 022 5 gusting 6 17.8
2014-Sep-18 21:11 17.8
2014-Sep-18 21:06 270 6 gusting 7 17.8
2014-Sep-18 21:01 17.8
2014-Sep-18 20:56 17.8
2014-Sep-18 20:51 045 6 gusting 8 18.3
2014-Sep-18 20:46 045 7 gusting 11 18.3
2014-Sep-18 20:41 067 6 gusting 9 18.3
2014-Sep-18 20:36 045 5 gusting 8 18.3
2014-Sep-18 20:31 022 5 gusting 8 18.3
2014-Sep-18 20:26 045 4 gusting 6 18.3
2014-Sep-18 20:21 022 5 gusting 9 18.3
2014-Sep-18 20:16 045 3 gusting 5 18.9
2014-Sep-18 20:11 045 4 gusting 6 18.9
2014-Sep-18 20:06 045 4 gusting 7 18.9
2014-Sep-18 20:01 045 5 gusting 6 18.9
2014-Sep-18 19:56 18.9
2014-Sep-18 19:51 045 3 gusting 6 18.9
2014-Sep-18 19:46 090 4 gusting 7 18.9
2014-Sep-18 19:41 067 4 gusting 6 18.3
2014-Sep-18 19:36 067 2 gusting 4 18.3
2014-Sep-18 19:31 18.3
2014-Sep-18 19:26 090 3 gusting 7 18.3
2014-Sep-18 19:21 045 2 gusting 5 18.3
2014-Sep-18 19:16 202 1 gusting 4 18.3
2014-Sep-18 19:11 090 1 gusting 3 18.3
2014-Sep-18 19:06 135 1 gusting 2 18.3
2014-Sep-18 19:01 135 2 gusting 4 18.3
2014-Sep-18 18:56 135 0 gusting 3 18.3
2014-Sep-18 18:51 067 1 gusting 2 18.3
2014-Sep-18 18:46 135 1 gusting 3 17.8
2014-Sep-18 18:41 112 17.8
2014-Sep-18 18:36 090 1 gusting 3 17.8
2014-Sep-18 18:31 135 0 gusting 2 17.8
2014-Sep-18 18:26 202 1 gusting 1 18.3
2014-Sep-18 18:21 225 2 gusting 4 18.3
2014-Sep-18 18:16 157 3 gusting 5 18.3
2014-Sep-18 18:11 225 2 gusting 4 18.3
2014-Sep-18 18:06 247 1 gusting 3 18.3
2014-Sep-18 18:01 247 1 gusting 2 18.3
2014-Sep-18 17:56 112 3 gusting 6 18.3
2014-Sep-18 17:51 067 2 gusting 5 18.3
2014-Sep-18 17:46 067 3 gusting 6 18.3
2014-Sep-18 17:41 18.3
2014-Sep-18 17:36 135 2 gusting 5 18.3
2014-Sep-18 17:31 337 1 gusting 3 18.3
2014-Sep-18 17:26 18.3
2014-Sep-18 17:21 045 5 gusting 8 18.3
2014-Sep-18 17:16 045 5 gusting 6 18.3
2014-Sep-18 16:57 18.3
2014-Sep-18 16:56 090 0 gusting 1 18.3
2014-Sep-18 16:51 090 4 gusting 7 18.3
2014-Sep-18 16:46 090 3 gusting 4 18.3
2014-Sep-18 16:41 090 4 gusting 8 18.3
2014-Sep-18 16:36 270 0 gusting 1 18.3
2014-Sep-18 16:31 292 1 gusting 3 18.9
2014-Sep-18 16:26 135 0 gusting 3 18.9
2014-Sep-18 16:21 315 18.9
2014-Sep-18 16:16 045 1 gusting 6 19.4
2014-Sep-18 16:11 045 3 gusting 6 19.4
2014-Sep-18 16:06 090 6 gusting 11 20.0
2014-Sep-18 16:01 090 4 gusting 6 20.0
2014-Sep-18 15:56 20.6
2014-Sep-18 15:51 067 3 gusting 7 21.1
2014-Sep-18 15:46 292 3 gusting 5 21.1
2014-Sep-18 15:41 022 6 gusting 10 21.1
2014-Sep-18 15:36 022 3 gusting 6 21.1
2014-Sep-18 15:31 090 2 gusting 6 21.1
2014-Sep-18 15:26 090 6 gusting 10 21.1
2014-Sep-18 15:21 045 6 gusting 9 21.1
2014-Sep-18 15:16 112 5 gusting 6 21.1
2014-Sep-18 15:11 045 6 gusting 12 21.7
2014-Sep-18 15:06 21.7
2014-Sep-18 15:01 067 4 gusting 9 21.7
2014-Sep-18 14:56 337 5 gusting 8 21.7
2014-Sep-18 14:51 045 7 gusting 10 21.7
2014-Sep-18 14:46 022 5 gusting 8 21.7
2014-Sep-18 14:41 045 5 gusting 8 22.2
2014-Sep-18 14:36 23.3
2014-Sep-18 14:31 022 4 gusting 6 23.9
2014-Sep-18 14:26 090 4 gusting 6 23.9
2014-Sep-18 14:21 23.9
2014-Sep-18 14:16 045 4 gusting 7 23.9
2014-Sep-18 14:11 090 4 gusting 6 23.3
2014-Sep-18 14:06 090 3 gusting 6 23.9
2014-Sep-18 14:01 090 3 gusting 5 23.3
2014-Sep-18 13:56 247 1 gusting 4 22.8
2014-Sep-18 13:51 22.2
2014-Sep-18 13:46 022 4 gusting 6 22.2
2014-Sep-18 13:41 247 4 gusting 6 22.2
2014-Sep-18 13:36 067 4 gusting 6 22.2
2014-Sep-18 13:31 045 5 gusting 8 22.2
2014-Sep-18 13:26 045 6 gusting 9 22.8
2014-Sep-18 13:21 067 3 gusting 7 23.9
2014-Sep-18 13:16 045 4 gusting 6 24.4
2014-Sep-18 13:11 022 6 gusting 11 25.0
2014-Sep-18 13:06 112 2 gusting 5 25.0
2014-Sep-18 13:01 225 4 gusting 7 23.9
2014-Sep-18 12:56 23.3
2014-Sep-18 12:51 045 2 gusting 4 23.3
2014-Sep-18 12:46 23.9
2014-Sep-18 12:41 247 0 gusting 2 24.4
2014-Sep-18 12:36 337 3 gusting 5 23.9
2014-Sep-18 12:31 23.9
2014-Sep-18 12:26 022 6 gusting 8 23.9
2014-Sep-18 12:21 022 3 gusting 6 23.9
2014-Sep-18 12:16 090 3 gusting 5 23.9
2014-Sep-18 12:11 315 2 gusting 4 23.9
2014-Sep-18 12:06 067 4 gusting 6 23.9
2014-Sep-18 12:01 337 3 gusting 3 23.9
2014-Sep-18 11:56 24.4
2014-Sep-18 11:51 022 6 gusting 11 24.4
2014-Sep-18 11:46 022 4 gusting 6 23.3
2014-Sep-18 11:41 045 4 gusting 6 23.3
2014-Sep-18 11:36 23.9
2014-Sep-18 11:31 112 4 gusting 6 24.4
2014-Sep-18 11:26 022 6 gusting 10 25.0
2014-Sep-18 11:21 022 7 gusting 10 23.9
2014-Sep-18 11:16 23.9
2014-Sep-18 11:11 23.9
2014-Sep-18 11:06 24.4
2014-Sep-18 11:01 045 5 gusting 7 24.4
2014-Sep-18 10:56 022 8 gusting 12 25.6
2014-Sep-18 10:51 045 3 gusting 6 24.4
2014-Sep-18 10:46 045 3 gusting 6 23.9
2014-Sep-18 10:41 045 5 gusting 8 23.3
2014-Sep-18 10:36 022 6 gusting 9 23.3
2014-Sep-18 10:31 022 6 gusting 8 23.3
2014-Sep-18 10:26 23.3
2014-Sep-18 10:21 045 3 gusting 5 23.3
2014-Sep-18 10:16 23.9
2014-Sep-18 10:11 24.4
2014-Sep-18 10:06 090 2 gusting 6 24.4
2014-Sep-18 10:01 090 2 gusting 3 23.9
2014-Sep-18 09:56 045 1 gusting 3 23.3
2014-Sep-18 09:51 022 0 gusting 2 23.3
2014-Sep-18 09:46 23.9
2014-Sep-18 09:41 090 3 gusting 5 23.9
2014-Sep-18 09:36 045 2 gusting 4 23.9
2014-Sep-18 09:31 022 2 gusting 3 23.9
2014-Sep-18 09:26 067 2 gusting 3 23.9
2014-Sep-18 09:21 157 3 gusting 5 23.3
2014-Sep-18 09:16 045 4 gusting 6 23.9
2014-Sep-18 09:11 022 2 gusting 5 25.0
2014-Sep-18 09:06 090 3 gusting 6 26.1
2014-Sep-18 09:01 090 3 gusting 6 25.6
2014-Sep-18 08:56 23.9
2014-Sep-18 08:51 225 4 gusting 6 22.8
2014-Sep-18 08:46 022 4 gusting 6 23.3
2014-Sep-18 08:41 23.9
2014-Sep-18 08:36 24.4
2014-Sep-18 08:31 067 1 gusting 2 24.4
2014-Sep-18 08:26 067 2 gusting 5 25.0
2014-Sep-18 08:21 25.0
2014-Sep-18 08:16 337 3 gusting 5 23.3
2014-Sep-18 08:11 045 1 gusting 2 21.7
2014-Sep-18 08:06 270 4 gusting 7 21.1
2014-Sep-18 08:01 21.7